Location: Cosy Dell
(34.2789°N, 117.4537°W)
Time: 10:47:17
(UTC+00:00)

Cosmos 841 Rocket - Pass Details

Date: 14 July 2020
Orbit: 747 x 772 km, 74.0° (Epoch: 08 August)

Event Time Altitude Azimuth Distance (km) Brightness Sun altitude
Rises 11:13:51 0° 349° (N) 3,205 7.2 -17.0°
Reaches altitude 10° 11:16:17 10° 355° (N) 2,280 6.4 -16.6°
Maximum altitude 11:21:17 49° 70° (ENE) 969 4.4 -15.8°
Drops below altitude 10° 11:26:18 10° 145° (SE) 2,283 5.9 -15.0°
Sets 11:28:44 0° 151° (SSE) 3,208 6.6 -14.7°
